Weather History for Green Bay, WI

Change the Weather History Date:

Wednesday, July 3, 2013

  Actual Average Record
Temperature  
Mean Temperature 68 °F 69 °F  
Max Temperature 73 °F 79 °F 97 °F (1966)
Min Temperature 62 °F 58 °F 43 °F (1968)
Degree Days  
Heating Degree Days 0 1  
Month to date heating degree days 1 3  
Since 1 June heating degree days 73 95  
Since 1 July heating degree days 1 3  
Cooling Degree Days 3 5  
Month to date cooling degree days 6 15  
Year to date cooling degree days 149 116  
Since 1 June cooling degree days 111 98  
Growing Degree Days 18 (Base 50)    
Moisture  
Dew Point 55 °F    
Average Humidity 69    
Maximum Humidity 84    
Minimum Humidity 53    
Precipitation  
Precipitation 0.01 in 0.12 in 1.63 in (1951)
Month to date precipitation 0.01 0.36  
Year to date precipitation 17.60 13.89  
Snow  
Snow 0.00 in 0.00 in 0.00 in ()
Month to date snowfall 0.0 0.0  
Since 1 June snowfall 0.0 0.0  
Since 1 July snowfall 0.0 0.0  
Snow Depth 0.00 in    
Sea Level Pressure  
Sea Level Pressure 30.07 in    
Wind  
Wind Speed 5 mph (ENE)    
Max Wind Speed 13 mph    
Max Gust Speed 16 mph    
Visibility 10 miles    
Events      
T = Trace of Precipitation, MM = Missing Value Source: NWS Daily Summary

Daily Weather History Graph

Daily Weather History Graph

Search for Another Location

Airport:

Trip Planner

Search our weather history database for the weather conditions in past years. The results will help you decide how hot, cold, wet, or windy it might be!

Date:

Astronomy

Jul. 03, 2013 Rise Set
Actual Time 5:13 AM CDT 8:40 PM CDT
Civil Twilight 4:36 AM CDT 9:16 PM CDT
Nautical Twilight 3:48 AM CDT 10:04 PM CDT
Astronomical Twilight 2:47 AM CDT 11:05 PM CDT
Moon 1:55 AM CDT (7/3) 4:46 PM CDT (7/3)
Length of Visible Light 16h 40m
Length of Day
15h 27m
Waning Crescent, 18% of the Moon is Illuminated
Jul 3
Waning Crescent
Jul 8
New
Jul 15
First Quarter
Jul 22
Full
Jul 29
Last Quarter

Hourly Weather History & Observations

Time (CDT) Temp. Dew Point Humidity Pressure Visibility Wind Dir Wind Speed Gust Speed Precip Events Conditions
12:53 AM 63.0 °F 48.0 °F 58% 30.11 in 10.0 mi Calm Calm - N/A   Overcast
1:53 AM 63.0 °F 50.0 °F 63% 30.10 in 10.0 mi Calm Calm - N/A   Overcast
2:53 AM 63.0 °F 53.1 °F 70% 30.09 in 10.0 mi Calm Calm - N/A   Overcast
3:53 AM 62.1 °F 54.0 °F 75% 30.08 in 10.0 mi Calm Calm - N/A   Overcast
4:53 AM 62.1 °F 51.1 °F 67% 30.08 in 10.0 mi NW 3.5 mph - N/A   Overcast
5:53 AM 62.1 °F 52.0 °F 70% 30.09 in 10.0 mi North 4.6 mph - N/A   Overcast
6:53 AM 63.0 °F 51.1 °F 65% 30.10 in 10.0 mi North 4.6 mph - N/A   Overcast
7:53 AM 64.0 °F 51.1 °F 63% 30.11 in 10.0 mi NW 4.6 mph - N/A   Overcast
8:53 AM 64.0 °F 54.0 °F 70% 30.12 in 10.0 mi NNW 6.9 mph - 0.01 in   Overcast
9:53 AM 66.9 °F 54.0 °F 63% 30.11 in 10.0 mi NNW 5.8 mph - N/A   Overcast
10:53 AM 70.0 °F 55.9 °F 61% 30.11 in 10.0 mi NE 12.7 mph - N/A   Overcast
11:53 AM 69.1 °F 52.0 °F 54% 30.10 in 10.0 mi NE 10.4 mph - N/A   Overcast
12:32 PM 73.0 °F 54.0 °F 51% 30.10 in 10.0 mi NE 9.2 mph - N/A   Overcast
12:53 PM 72.0 °F 53.1 °F 51% 30.09 in 10.0 mi ENE 6.9 mph - N/A   Overcast
1:53 PM 72.0 °F 55.0 °F 55% 30.07 in 10.0 mi East 6.9 mph - N/A   Overcast
2:05 PM 71.1 °F 55.0 °F 57% 30.07 in 10.0 mi East 5.8 mph - N/A   Overcast
2:38 PM 71.1 °F 55.9 °F 59% 30.08 in 10.0 mi SE 5.8 mph - N/A   Overcast
2:53 PM 71.1 °F 57.0 °F 61% 30.07 in 10.0 mi ESE 6.9 mph - N/A   Overcast
3:53 PM 70.0 °F 57.9 °F 65% 30.06 in 10.0 mi ESE 5.8 mph - N/A   Overcast
4:53 PM 71.1 °F 60.1 °F 68% 30.05 in 10.0 mi ESE 4.6 mph - N/A   Overcast
5:26 PM 70.0 °F 59.0 °F 68% 30.04 in 10.0 mi SE 4.6 mph - N/A   Overcast
5:53 PM 70.0 °F 59.0 °F 68% 30.04 in 10.0 mi East 5.8 mph - 0.00 in   Mostly Cloudy
6:53 PM 69.1 °F 59.0 °F 70% 30.04 in 10.0 mi Calm Calm - N/A   Scattered Clouds
7:53 PM 66.9 °F 59.0 °F 76% 30.03 in 10.0 mi NW 3.5 mph - N/A   Overcast
8:12 PM 66.9 °F 60.1 °F 79% 30.03 in 9.0 mi North 4.6 mph - N/A   Overcast
8:53 PM 66.9 °F 60.1 °F 79% 30.03 in 9.0 mi Calm Calm - N/A   Overcast
9:53 PM 66.9 °F 61.0 °F 81% 30.04 in 9.0 mi SSE 4.6 mph - N/A   Overcast
10:53 PM 66.9 °F 61.0 °F 81% 30.04 in 8.0 mi SSE 5.8 mph - N/A   Overcast
11:53 PM 64.9 °F 59.0 °F 81% 30.05 in 8.0 mi South 6.9 mph - N/A   Overcast